• In Hungary
  • List of Countries
  • For 7 days
  • Water Temperature
  • Satellite Maps
  • Weather Map
  • News
  • Weather Widgets
  • user-avatar
    Login

    Hourly Weather Veliko Tarnovo

    Today, 18 October, Wednesday

    Time Temperature Precipitation Wind Pressure Humidity
    00:00 +18°C° 0 mm 1 mps 745 mmHg 57%
    01:00 +16°C° 0 mm 1 mps 745 mmHg 58%
    02:00 +16°C° 0 mm 1 mps 745 mmHg 58%
    03:00 +16°C° 0 mm 1 mps 744 mmHg 59%
    04:00 +16°C° 0 mm 1 mps 744 mmHg 60%
    05:00 +15°C° 0 mm 1 mps 744 mmHg 60%
    06:00 +16°C° 0 mm 1 mps 744 mmHg 59%
    07:00 +18°C° 0 mm 1 mps 744 mmHg 58%
    08:00 +18°C° 0 mm 1 mps 744 mmHg 57%
    09:00 +21°C° 0 mm 1 mps 744 mmHg 50%
    10:00 +23°C° 0 mm 1 mps 744 mmHg 43%
    11:00 +25°C° 0 mm 1 mps 744 mmHg 36%
    12:00 +26°C° 0 mm 1 mps 743 mmHg 34%
    13:00 +27°C° 0 mm 1 mps 743 mmHg 32%
    14:00 +27°C° 0 mm 1 mps 743 mmHg 29%
    15:00 +26°C° 0 mm 1 mps 742 mmHg 33%
    16:00 +25°C° 0 mm 1 mps 742 mmHg 37%
    17:00 +23°C° 0 mm 1 mps 741 mmHg 40%
    18:00 +22°C° 0 mm 1 mps 741 mmHg 42%
    19:00 +21°C° 0 mm 1 mps 741 mmHg 44%
    20:00 +18°C° 0 mm 2 mps 741 mmHg 46%
    21:00 +18°C° 0 mm 2 mps 741 mmHg 47%
    22:00 +17°C° 0 mm 2 mps 741 mmHg 48%
    23:00 +17°C° 0 mm 2 mps 741 mmHg 49%

    Tomorrow, 19 October, Thursday

    Time Temperature Precipitation Wind Pressure Humidity
    00:00 +16°C° 0 mm 2 mps 741 mmHg 50%
    01:00 +16°C° 0 mm 2 mps 741 mmHg 50%
    02:00 +16°C° 0 mm 1 mps 741 mmHg 51%
    03:00 +15°C° 0 mm 1 mps 740 mmHg 51%
    04:00 +15°C° 0 mm 1 mps 740 mmHg 51%
    05:00 +15°C° 0 mm 1 mps 740 mmHg 52%
    06:00 +15°C° 0 mm 1 mps 740 mmHg 51%
    07:00 +16°C° 0 mm 1 mps 740 mmHg 51%
    08:00 +18°C° 0 mm 1 mps 740 mmHg 51%
    09:00 +20°C° 0 mm 1 mps 740 mmHg 45%
    10:00 +22°C° 0 mm 1 mps 740 mmHg 39%
    11:00 +24°C° 0 mm 1 mps 740 mmHg 33%
    12:00 +25°C° 0 mm 1 mps 740 mmHg 32%
    13:00 +26°C° 0 mm 1 mps 740 mmHg 30%
    14:00 +26°C° 0 mm 1 mps 739 mmHg 29%
    15:00 +25°C° 0 mm 1 mps 739 mmHg 33%
    16:00 +24°C° 0 mm 1 mps 739 mmHg 36%
    17:00 +22°C° 0 mm 1 mps 739 mmHg 40%
    18:00 +21°C° 0 mm 1 mps 739 mmHg 42%
    19:00 +20°C° 0 mm 1 mps 739 mmHg 44%
    20:00 +19°C° 0 mm 1 mps 739 mmHg 45%
    21:00 +19°C° 0 mm 1 mps 739 mmHg 46%
    22:00 +18°C° 0 mm 1 mps 739 mmHg 47%
    23:00 +18°C° 0 mm 1 mps 739 mmHg 48%

    Day after tomorrow, 20 October, Friday

    Time Temperature Precipitation Wind Pressure Humidity
    00:00 +16°C° 0 mm 1 mps 739 mmHg 49%
    01:00 +16°C° 0 mm 1 mps 739 mmHg 50%
    02:00 +16°C° 0 mm 1 mps 739 mmHg 50%
    03:00 +16°C° 0 mm 1 mps 739 mmHg 51%
    04:00 +15°C° 0 mm 1 mps 739 mmHg 52%
    05:00 +15°C° 0 mm 1 mps 739 mmHg 53%
    06:00 +16°C° 0 mm 1 mps 739 mmHg 53%
    07:00 +16°C° 0 mm 1 mps 739 mmHg 52%
    08:00 +18°C° 0 mm 1 mps 739 mmHg 52%
    09:00 +20°C° 0 mm 1 mps 739 mmHg 47%
    10:00 +22°C° 0 mm 1 mps 740 mmHg 41%
    11:00 +24°C° 0 mm 1 mps 740 mmHg 36%
    12:00 +25°C° 0 mm 1 mps 740 mmHg 35%
    13:00 +25°C° 0 mm 1 mps 739 mmHg 33%
    14:00 +26°C° 0 mm 2 mps 739 mmHg 32%
    15:00 +25°C° 0 mm 1 mps 739 mmHg 36%
    16:00 +23°C° 0 mm 1 mps 739 mmHg 40%
    17:00 +22°C° 0 mm 1 mps 739 mmHg 44%
    18:00 +21°C° 0 mm 1 mps 739 mmHg 47%
    19:00 +20°C° 0 mm 1 mps 739 mmHg 49%
    20:00 +19°C° 0 mm 1 mps 740 mmHg 52%
    21:00 +18°C° 0 mm 1 mps 740 mmHg 53%
    22:00 +18°C° 0 mm 1 mps 740 mmHg 54%
    23:00 +18°C° 0 mm 1 mps 740 mmHg 55%

    21 October, Saturday

    Time Temperature Precipitation Wind Pressure Humidity
    00:00 +16°C° 0 mm 1 mps 740 mmHg 56%
    01:00 +16°C° 0 mm 1 mps 740 mmHg 57%
    02:00 +16°C° 0 mm 1 mps 740 mmHg 57%
    03:00 +15°C° 0 mm 1 mps 740 mmHg 58%
    04:00 +15°C° 0 mm 1 mps 740 mmHg 59%
    05:00 +15°C° 0 mm 1 mps 740 mmHg 60%
    06:00 +15°C° 0 mm 1 mps 740 mmHg 59%
    07:00 +15°C° 0 mm 0 mps 740 mmHg 59%
    08:00 +16°C° 0 mm 0 mps 741 mmHg 58%
    09:00 +19°C° 0 mm 1 mps 741 mmHg 53%
    10:00 +21°C° 0 mm 1 mps 741 mmHg 47%
    11:00 +23°C° 0 mm 1 mps 741 mmHg 42%
    12:00 +24°C° 0 mm 1 mps 741 mmHg 41%
    13:00 +24°C° 0 mm 1 mps 740 mmHg 40%
    14:00 +25°C° 0 mm 2 mps 740 mmHg 39%
    15:00 +24°C° 0 mm 1 mps 740 mmHg 43%
    16:00 +22°C° 0 mm 1 mps 740 mmHg 46%
    17:00 +21°C° 0 mm 1 mps 740 mmHg 50%
    18:00 +20°C° 0 mm 1 mps 740 mmHg 53%
    19:00 +19°C° 0 mm 1 mps 740 mmHg 56%
    20:00 +18°C° 0 mm 1 mps 740 mmHg 60%
    21:00 +18°C° 0 mm 1 mps 741 mmHg 61%
    22:00 +16°C° 0 mm 1 mps 741 mmHg 62%
    23:00 +16°C° 0 mm 1 mps 741 mmHg 64%

    22 October, Sunday

    Time Temperature Precipitation Wind Pressure Humidity
    00:00 +15°C° 0 mm 1 mps 741 mmHg 65%
    01:00 +15°C° 0 mm 1 mps 741 mmHg 66%
    02:00 +14°C° 0 mm 0 mps 741 mmHg 67%
    03:00 +14°C° 0 mm 0 mps 741 mmHg 68%
    04:00 +13°C° 0 mm 0 mps 741 mmHg 68%
    05:00 +13°C° 0 mm 0 mps 741 mmHg 69%
    06:00 +14°C° 0 mm 1 mps 741 mmHg 68%
    07:00 +15°C° 0 mm 1 mps 741 mmHg 66%
    08:00 +16°C° 0 mm 1 mps 741 mmHg 65%
    09:00 +18°C° 0 mm 1 mps 741 mmHg 58%
    10:00 +20°C° 0 mm 1 mps 741 mmHg 52%
    11:00 +21°C° 0 mm 2 mps 741 mmHg 46%
    12:00 +23°C° 0 mm 2 mps 741 mmHg 44%
    13:00 +23°C° 0 mm 2 mps 741 mmHg 42%
    14:00 +24°C° 0 mm 2 mps 740 mmHg 40%
    15:00 +23°C° 0 mm 2 mps 740 mmHg 44%
    16:00 +21°C° 0 mm 2 mps 740 mmHg 48%
    17:00 +20°C° 0 mm 2 mps 740 mmHg 52%
    18:00 +18°C° 0 mm 2 mps 740 mmHg 57%
    19:00 +17°C° 0 mm 3 mps 740 mmHg 62%
    20:00 +16°C° 0 mm 3 mps 740 mmHg 67%
    21:00 +14°C° 0 mm 3 mps 739 mmHg 71%
    22:00 +14°C° 0 mm 3 mps 739 mmHg 76%
    23:00 +13°C° 0 mm 3 mps 739 mmHg 80%

    23 October, Monday

    Time Temperature Precipitation Wind Pressure Humidity
    00:00 +13°C° 0 mm 3 mps 739 mmHg 81%
    01:00 +13°C° 0 mm 3 mps 739 mmHg 83%
    02:00 +13°C° 0 mm 3 mps 739 mmHg 85%
    03:00 +12°C° 0 mm 3 mps 738 mmHg 85%
    04:00 +13°C° 0 mm 2 mps 738 mmHg 86%
    05:00 +13°C° 0 mm 2 mps 738 mmHg 86%
    06:00 +13°C° 0 mm 3 mps 738 mmHg 85%
    07:00 +13°C° 0 mm 3 mps 738 mmHg 83%
    08:00 +13°C° 0 mm 3 mps 738 mmHg 81%
    09:00 +16°C° 0 mm 3 mps 738 mmHg 75%
    10:00 +17°C° 0 mm 3 mps 738 mmHg 69%
    11:00 +18°C° 0 mm 3 mps 738 mmHg 63%
    12:00 +19°C° 0 mm 3 mps 738 mmHg 60%
    13:00 +19°C° 0 mm 3 mps 738 mmHg 56%
    14:00 +20°C° 0 mm 2 mps 737 mmHg 53%
    15:00 +19°C° 0 mm 2 mps 737 mmHg 57%
    16:00 +18°C° 0 mm 2 mps 738 mmHg 60%
    17:00 +18°C° 0 mm 2 mps 738 mmHg 64%
    18:00 +17°C° 0 mm 2 mps 738 mmHg 69%
    19:00 +16°C° 0 mm 2 mps 738 mmHg 73%
    20:00 +15°C° 0 mm 2 mps 738 mmHg 78%
    21:00 +14°C° 0 mm 2 mps 739 mmHg 81%
    22:00 +14°C° 0 mm 1 mps 739 mmHg 83%
    23:00 +13°C° 0 mm 1 mps 739 mmHg 86%
    Show more